EHI
0 1 1 1 2 4 5 6 4 3 6 8 9 9 6 5 6 8 13 20 26 27 24 19 13 8 5 4 4 5 6 6 5 5 4 3 3 3 3 3 3 2 1
1 2 2 2 3 4 6 7 6 5 6 7 8 7 6 5 6 9 14 19 24 26 25 22 18 12 8 5 5 6 6 5 4 4 4 3 3 3 3 3 3 2 2
6 5 6 6 4 6 9 10 9 7 4 4 6 6 6 8 9 11 15 19 21 22 23 25 25 21 15 11 8 8 6 5 4 5 5 4 3 3 3 3 2 1 1
9 8 9 8 7 8 10 10 9 6 3 3 4 5 7 10 11 12 15 19 22 22 23 27 31 29 24 19 15 12 10 8 6 5 5 4 3 3 3 2 1 0 0
10 9 9 9 9 10 11 9 6 5 5 5 4 5 7 10 12 13 14 18 23 25 25 28 30 29 27 25 23 19 15 11 8 7 6 5 3 3 3 3 2 1 1
12 10 9 11 12 12 12 8 5 5 7 6 5 5 7 10 14 15 15 17 22 25 26 27 27 25 25 26 27 26 22 17 12 10 8 6 4 4 3 3 3 3 2
16 14 13 15 16 15 13 10 7 5 5 5 5 5 7 11 14 15 16 19 22 24 24 25 28 28 25 25 27 28 26 23 19 14 10 8 5 4 4 3 3 3 3
21 20 20 20 20 19 16 13 11 9 6 5 6 5 5 9 12 13 15 18 22 22 20 22 28 32 30 26 24 26 27 25 23 18 14 10 6 4 3 3 4 3 3
27 26 25 24 24 23 19 16 16 15 11 9 7 5 5 6 8 11 13 16 18 18 15 15 20 28 32 29 25 24 24 24 24 21 17 12 8 5 4 4 4 4 3
30 28 27 28 28 25 19 16 17 18 16 12 9 8 7 6 7 9 11 12 13 15 15 12 14 21 28 30 28 25 23 22 22 20 18 14 10 6 4 3 3 3 3
31 29 29 32 33 30 25 20 18 18 16 14 11 10 9 8 8 9 8 7 9 13 17 18 16 19 25 29 30 27 22 18 17 17 17 14 9 5 3 1 1 1 2
29 28 31 36 38 35 33 30 25 21 18 16 15 14 12 10 9 10 9 7 8 11 18 23 21 20 23 28 30 27 20 14 11 12 13 10 6 2 1 0 0 1 2
29 29 32 39 41 38 35 32 28 24 23 21 19 19 16 11 10 11 11 9 8 11 17 24 25 23 23 26 28 24 17 10 7 6 7 6 3 1 0 0 0 2 3
31 33 36 40 41 37 33 31 28 27 29 29 25 24 21 16 14 14 13 12 10 10 14 22 26 25 24 25 24 21 16 9 4 2 2 2 1 0 0 0 0 1 2
33 37 41 41 40 36 35 32 31 32 36 35 31 28 25 22 20 18 16 15 13 9 12 19 23 24 24 22 19 20 19 10 3 1 0 0 0 0 0 0 0 1 2
36 38 40 41 38 37 38 36 33 35 38 36 32 29 27 24 22 20 18 17 15 12 13 18 21 22 22 19 17 21 21 12 4 1 0 0 0 0 0 0 0 0 1
38 36 36 36 35 34 38 38 33 31 33 32 29 27 26 24 23 22 19 16 15 14 14 17 20 22 23 22 21 23 20 13 6 2 0 0 0 0 0 0 0 0 0
38 36 34 34 31 30 33 35 31 27 27 27 25 24 23 23 24 23 21 18 17 17 17 17 19 21 23 24 24 21 16 12 8 2 0 0 0 0 0 0 0 0 0
39 38 37 35 31 28 27 28 26 24 24 23 21 20 20 21 22 19 19 20 19 18 18 18 18 18 20 23 22 18 14 12 7 2 0 0 0 0 0 0 0 0 0
39 39 39 37 32 27 24 22 21 22 21 18 16 16 17 18 17 15 14 17 17 17 18 19 18 17 18 20 20 18 15 12 7 2 0 0 0 0 0 0 0 0 0
38 39 38 35 30 23 18 16 17 19 19 16 13 14 15 14 12 11 11 12 13 13 15 17 19 18 17 16 17 16 15 12 8 3 1 1 1 1 1 1 0 0 0
39 38 36 33 27 17 11 9 11 16 17 15 13 13 12 11 9 8 8 7 8 8 10 14 16 15 14 13 13 14 13 11 8 5 2 1 1 2 2 1 0 0 0
39 36 34 32 26 17 8 5 6 12 16 15 14 12 11 9 8 9 8 6 4 4 6 11 13 11 10 10 12 13 12 10 9 7 4 1 1 1 1 1 0 0 0
34 32 30 30 27 19 10 4 5 9 13 14 13 13 11 9 8 10 11 10 8 7 6 8 9 8 6 8 11 13 12 11 10 8 7 5 3 1 0 0 0 0 0
29 27 25 25 24 18 10 4 4 9 13 13 12 12 11 9 7 7 11 14 14 12 8 5 5 4 4 5 8 12 13 12 10 9 9 8 6 3 1 0 0 0 0
26 24 23 22 20 16 9 4 4 9 13 13 13 11 9 7 5 6 11 15 16 14 8 4 2 1 2 3 5 10 13 11 10 9 8 8 7 4 2 1 0 0 0
Wind_Speed
0 1 0 0 1 1 1 1 1 1 2 3 3 3 2 2 2 4 5 11 12 11 11 11 10 9 9 8 8 7 7 7 7 7 7 7 7 7 7 7 7 7 7
1 0 0 0 1 1 0 1 1 2 2 2 2 2 2 2 2 4 6 8 12 12 11 11 11 10 10 9 9 8 8 8 7 7 7 7 7 7 7 7 7 7 6
1 1 1 1 1 1 1 1 2 2 2 2 2 2 2 2 2 3 5 5 7 10 11 11 11 11 11 10 10 10 9 8 8 8 7 7 7 7 7 7 7 6 6
2 2 1 1 1 1 1 1 1 1 1 1 2 2 2 2 2 3 4 4 5 6 10 13 12 11 11 11 11 10 9 9 8 8 7 7 7 7 7 6 7 6 5
3 3 1 1 1 1 1 2 0 1 1 2 3 3 2 2 3 4 3 4 5 5 6 10 13 12 12 13 12 11 10 9 8 8 7 7 7 7 7 6 6 6 6
3 2 2 2 2 1 1 1 1 2 2 2 4 3 2 3 3 3 3 3 3 5 6 7 8 9 13 12 12 12 11 9 9 8 7 7 7 7 7 6 6 5 6
3 2 2 1 2 1 1 1 1 3 3 2 3 3 3 3 3 3 2 2 3 3 4 6 6 6 7 12 12 12 12 11 10 9 8 8 7 7 7 6 6 5 5
3 3 2 2 2 1 2 2 2 2 3 2 1 2 2 2 2 3 2 2 2 2 3 5 6 6 5 5 8 13 12 11 10 9 9 9 8 7 7 7 7 6 6
2 2 3 3 2 2 2 2 2 2 2 2 1 1 1 1 2 1 2 2 2 2 2 2 4 5 5 5 6 10 12 11 11 11 10 9 8 8 8 8 7 7 7
3 2 2 3 3 2 2 3 2 2 2 2 1 1 2 1 1 2 2 1 3 3 3 3 3 4 4 4 4 9 12 11 11 11 10 9 8 8 8 7 8 7 7
3 3 3 2 2 2 2 2 1 2 2 2 2 1 2 2 3 2 3 3 2 2 3 3 2 3 4 4 3 6 11 11 10 10 9 8 8 8 7 7 7 7 7
2 3 3 2 2 2 2 2 2 3 2 3 3 2 2 2 2 2 3 3 2 2 2 2 2 2 3 3 5 7 10 10 10 9 9 8 8 8 8 8 8 7 7
2 2 2 2 2 2 2 2 2 3 3 3 3 3 3 3 2 2 3 3 3 2 1 1 2 1 2 3 4 8 10 10 10 9 8 8 8 8 8 8 8 7 7
1 2 2 2 2 2 3 2 2 3 3 3 4 3 3 3 3 3 2 3 3 3 2 2 1 1 1 2 4 7 6 10 9 9 8 8 8 8 8 7 6 5 5
2 1 1 1 2 2 3 2 2 3 2 2 3 3 3 3 3 3 2 2 2 3 3 2 1 1 1 1 5 4 4 8 9 10 9 9 8 8 7 7 6 6 5
1 0 1 1 2 2 3 3 3 3 2 2 3 3 3 3 3 3 2 2 2 2 3 2 2 1 1 2 4 3 3 8 9 10 10 9 9 8 8 7 7 6 6
1 1 1 1 2 2 2 2 3 3 3 3 3 3 3 4 3 3 3 2 2 2 4 3 2 2 1 1 1 2 3 4 5 9 10 10 9 9 9 8 7 7 7
2 2 2 2 2 2 2 2 3 3 3 3 3 3 4 4 4 3 2 3 3 3 3 4 3 2 2 1 3 3 3 3 3 7 10 10 10 9 9 9 8 8 7
2 2 2 1 1 2 2 2 2 2 2 2 3 3 3 3 4 3 3 3 3 4 2 3 3 2 2 2 2 3 3 2 3 4 8 9 9 9 8 9 8 8 7
1 1 1 2 1 2 2 2 2 2 2 3 3 3 3 3 4 4 4 3 3 3 3 3 3 3 2 2 1 2 2 1 1 2 3 4 7 9 8 9 8 8 8
2 1 1 1 2 2 1 1 2 2 2 3 3 3 3 3 4 4 4 3 3 3 3 2 2 2 2 2 2 2 2 2 1 1 1 2 3 4 5 8 8 9 8
1 1 1 2 2 2 1 2 1 2 3 4 4 4 4 4 5 5 5 5 4 4 3 3 3 2 3 3 1 2 2 2 2 1 1 2 2 3 4 4 8 9 8
1 1 1 2 1 1 1 2 2 2 3 4 4 4 5 5 3 2 4 5 5 6 7 4 4 4 3 3 2 3 3 2 2 2 1 2 2 3 3 4 9 9 9
1 1 2 2 2 2 1 2 3 3 4 4 4 4 3 4 4 3 4 4 3 4 5 5 4 4 4 3 3 4 4 3 2 2 1 2 2 2 2 2 8 10 10
2 2 2 2 2 1 1 1 2 3 3 4 4 4 3 3 3 4 4 4 4 4 5 4 5 5 6 5 4 2 2 2 2 2 2 2 2 2 2 2 5 9 9
2 2 2 2 2 2 2 1 2 3 3 3 3 3 3 2 3 3 3 4 5 4 5 5 4 5 5 5 5 4 3 3 2 2 1 1 1 1 1 1 3 4 4
Wind_Direction
108 110 114 106 240 205 194 251 258 230 231 242 246 239 238 228 202 159 155 175 175 178 182 186 192 196 198 201 202 201 203 206 208 211 216 220 221 223 226 228 231 235 238
88 350 118 357 309 294 244 265 268 264 260 259 256 247 237 232 207 161 157 181 184 184 189 194 198 202 204 205 206 206 207 208 211 215 218 221 222 226 229 231 234 236 237
191 243 213 230 272 271 239 241 267 264 255 252 245 251 236 228 218 172 169 176 180 193 198 201 204 207 208 210 210 210 210 210 213 215 218 222 222 226 231 234 234 234 236
211 243 233 218 238 256 248 243 265 280 282 276 265 255 231 209 217 201 197 184 178 186 200 207 207 208 210 211 211 212 211 213 214 216 220 221 220 222 226 228 231 232 231
211 223 236 227 233 253 273 290 15 318 284 283 272 248 230 213 215 216 205 194 187 182 182 197 205 208 211 210 212 214 214 213 211 215 217 217 218 220 221 224 230 228 223
220 234 230 213 233 239 273 310 312 287 276 266 274 280 245 221 210 208 213 207 193 184 178 185 193 210 213 212 212 213 215 215 213 213 213 214 219 219 217 218 221 222 222
217 223 269 228 232 225 281 291 285 281 273 263 271 284 262 246 217 205 203 216 212 193 186 177 182 194 201 211 214 213 213 213 213 213 214 216 220 218 216 215 216 221 228
229 213 224 252 240 218 237 254 264 283 292 294 293 310 303 274 275 220 184 206 221 203 208 196 183 190 190 183 202 207 208 211 213 215 218 222 223 219 217 216 215 219 225
228 240 203 229 243 232 221 230 246 255 270 287 291 287 311 309 304 259 218 193 200 200 212 211 191 187 190 178 185 200 205 209 214 218 220 223 223 223 219 218 217 219 223
222 225 227 230 245 248 238 245 210 249 251 272 277 255 250 279 300 314 299 234 208 194 198 228 203 181 179 175 175 180 195 203 211 215 217 217 217 216 220 222 220 220 224
222 229 216 222 231 248 250 274 292 280 274 274 276 278 276 257 243 250 285 305 300 232 203 204 201 183 179 172 174 174 183 195 205 210 211 213 216 215 220 224 225 224 225
217 226 218 213 226 242 249 252 256 259 261 280 291 289 275 268 261 254 274 281 274 270 242 207 193 186 174 162 169 171 179 187 194 198 205 210 217 220 224 228 229 230 230
216 226 228 192 228 243 245 250 245 256 254 259 265 270 277 271 271 262 271 282 285 279 257 228 191 161 198 156 157 178 185 186 190 192 198 208 213 217 223 226 226 227 234
237 198 214 202 229 254 254 240 248 250 242 245 259 266 281 284 285 277 270 284 296 304 296 265 219 160 176 153 157 180 186 185 188 191 196 201 205 210 216 219 217 217 225
255 186 200 217 221 240 256 260 259 267 264 254 266 268 265 274 281 277 275 275 273 285 289 282 286 204 159 131 156 189 178 186 191 194 196 198 200 202 207 209 208 207 210
291 323 238 235 237 236 240 245 255 262 260 259 264 278 279 280 285 288 290 286 277 276 284 291 272 261 228 204 175 193 189 186 195 199 199 197 198 201 202 201 199 200 203
280 263 270 264 258 259 256 253 256 261 262 269 275 273 273 276 285 297 302 298 286 274 273 283 284 264 276 229 178 214 189 188 196 202 198 197 199 201 201 202 201 201 200
261 264 262 268 275 282 280 271 272 277 269 270 274 279 280 279 280 277 291 293 288 275 266 270 277 270 261 233 208 224 223 209 199 199 196 195 197 199 199 199 199 200 200
256 275 281 267 275 286 285 281 276 293 299 290 287 287 290 293 293 292 283 283 282 286 282 279 282 281 270 255 224 236 250 245 225 183 188 194 198 199 198 194 194 195 198
229 241 263 264 265 270 279 287 284 274 282 295 295 290 293 289 290 291 287 282 280 287 286 277 274 278 279 271 238 244 267 268 249 193 179 182 197 201 201 196 195 192 192
222 219 249 265 266 253 273 300 290 293 297 291 288 282 281 281 280 279 285 290 294 288 284 277 272 272 279 289 271 255 262 269 262 165 159 186 186 194 199 202 197 191 192
269 242 247 262 276 294 3 27 341 322 312 301 298 296 287 266 271 265 268 277 277 279 285 281 275 276 275 273 272 271 259 262 266 210 196 225 197 199 198 187 185 186 191
245 267 287 279 280 294 318 335 336 299 294 292 293 295 298 311 309 296 283 270 261 254 248 254 268 272 277 280 272 261 253 245 254 248 228 241 216 211 202 179 172 181 189
243 258 259 265 280 292 289 298 307 281 281 283 286 285 283 299 317 318 299 291 280 269 256 244 252 259 264 270 262 253 247 237 239 239 205 244 241 223 199 175 182 184 192
249 256 260 267 274 282 253 288 293 280 284 293 298 313 308 298 325 321 301 299 299 297 292 276 257 257 258 260 259 262 253 236 256 249 224 220 234 232 203 187 191 191 195
271 271 271 260 264 272 260 256 251 277 290 294 288 280 290 287 300 305 293 297 294 295 305 306 291 268 255 251 244 226 228 241 256 256 225 219 236 226 237 214 183 186 198